FENGYUN 1C DEB

Satellite information

Favourite Embed

Satellite Type and Status

DEBRISIN ORBIT

Key statistics

Satellite FENGYUN 1C DEB at a glance.

Uptime

9715

Days in orbit

Revolutions

≈ 14.2

Per day

Orbit

SSO

Sun Synchronous Orbit

Inclination

98.8

Latest

Satellite identification and parameters

Extended collection of information and parameters for FENGYUN 1C DEB.

Object identification

Identified? True

Debris? True

Object name: FENGYUN 1C DEB

International designator: 1999-025DHG

Object number (NORAD): 33719

Object ID (CCSDS): 33719

Country: PEOPLES REPUBLIC OF CHINA (PRC)

Current information (Y/N): Y

RCS size: SMALL

Orbital parameters

Period: 101.161 minutes

Inclination: 98.7732 deg

SMA: 7191.773 km

Apoapsis: 835.596 km

Periapsis: 791.681 km

RAAN: 45.648 deg

Eccentricy: 0.00305317

Argument of periapsis: 83.1061 deg

Mean anomaly: 72.2822 deg

Mean motion: 14.23471449 rev/day

Mean motion (dot): 0.00003348 rev/day2

B* drag term: 0.0014848334 1/REarth

Two-line elements (TLE)

Creation date: Dec. 12, 2025, 3:16 a.m.

Reference frame: TEME

Reference center: EARTH

Epoch: Dec. 11, 2025, 4:12 p.m. UTC

TLE line 0: 0 FENGYUN 1C DEB

TLE line 1: 1 33719U 99025DHG 25345.67561017 .00003348 00000-0 14848-2 0 9995

TLE line 2: 2 33719 98.7732 45.6480 0030532 83.1061 72.2822 14.23471449919988

Live tracking on map

Real-time ground track for satellite FENGYUN 1C DEB.

In-orbit conjunctions

A list of the most updated potential collisions computed for object FENGYUN 1C DEB.

Target Orbit TCA Probability of collision Miss distance Type
STELLA SSO 2025-06-05 18:11:11 0.000121966 929.0 (m) PAYLOAD
CZ-6A DEB LEO 2025-04-02 01:40:41 0.0001206947 149.0 (m) DEBRIS
CZ-6A DEB LEO 2025-02-18 00:25:56 0.0001615637 167.0 (m) DEBRIS

Associated space launch

Chinese polar orbiting meteorological satellite

FENGYUN 1C DEB was lifted into orbit during the mission ‘Long March 4B | Feng Yun 1C’, on board a Long March 4B space rocket.

The launch took place on May 10, 1999, 1:33 a.m. from Launch Complex 7.

For more information about the launch, click the button.

Launch to space Long March 4B | Feng Yun 1C
Long March 4B | Feng Yun 1C

Agency: N/A

Status: Launch Successful

Launch date: May 10, 1999, 1:33 a.m. UTC

Rocket: Long March 4B

Launch pad: Launch Complex 7

Location: Taiyuan Satellite Launch Center, People's Republic of China

...

Latest news about this satellite

There are no fresh news available about this satellite. Check back as we update our databases every day.


Newsletter sign-up

Weekly statistics, charts and insights to help you stay on top of the space industry.